Wind_Speed
31 32 31 31 31 30 31 32 31 29 28 28 29 30 32 32 31 32 30 29 28 28 28 28 28 26 23 21 20 19 18 18 18 17 17 17 17 16 15 15 14 13 12
33 33 33 34 33 32 32 31 30 30 29 29 29 29 31 32 31 30 30 30 30 29 29 29 28 26 25 23 22 20 19 19 20 19 18 18 18 19 18 17 17 16 15
35 34 35 35 34 34 33 32 30 29 28 29 29 29 29 30 31 31 31 30 30 30 30 29 29 28 27 25 24 22 21 20 20 21 20 19 19 20 20 19 19 19 18
36 36 36 36 36 36 35 33 32 31 29 29 28 27 27 28 30 30 31 30 30 31 31 29 28 29 28 27 25 24 22 21 20 21 21 21 20 21 21 21 20 20 20
38 39 38 38 37 36 35 34 33 31 30 29 28 28 28 28 28 29 30 30 29 30 30 30 30 29 29 28 26 25 24 23 22 21 21 21 21 21 22 22 22 22 22
41 40 40 39 38 37 36 36 34 33 32 31 30 30 30 29 29 30 30 30 30 30 31 31 31 30 30 29 28 26 25 24 23 22 21 21 21 21 21 22 22 23 23
41 41 41 40 39 39 38 37 36 35 34 33 32 31 31 30 30 30 29 30 30 31 31 30 30 30 30 31 30 28 27 25 24 23 22 22 21 21 21 22 22 22 23
41 41 40 40 40 40 40 39 38 36 36 36 35 33 32 31 31 30 29 29 29 31 31 31 31 30 32 31 30 29 28 27 25 24 24 23 22 21 21 22 23 23 23
41 41 40 40 40 40 40 40 39 38 36 36 36 35 34 32 32 31 29 29 29 30 32 31 32 32 33 33 32 30 29 28 27 25 24 23 22 22 22 21 22 22 22
39 39 39 38 38 38 38 39 39 38 37 36 36 36 35 33 31 31 30 29 29 30 33 34 33 33 34 34 32 31 30 29 27 26 24 23 23 22 21 21 21 22 22
38 37 36 35 34 34 34 35 36 36 36 36 36 36 36 35 33 32 30 29 30 30 33 33 34 34 35 35 33 32 32 30 28 26 25 23 22 22 21 21 20 20 21
37 36 35 34 33 33 32 32 32 33 34 35 35 35 36 35 34 33 32 31 31 32 33 34 35 35 35 36 35 34 33 31 29 27 25 24 22 21 20 20 20 20 20
37 36 35 34 33 33 33 32 32 32 32 33 34 35 35 36 35 35 33 33 33 32 33 34 36 36 37 37 36 35 34 33 30 28 26 24 23 21 20 19 19 19 19
37 37 36 35 35 35 34 34 33 34 34 34 34 34 35 36 36 36 35 35 35 35 34 33 36 37 39 39 38 37 36 34 32 29 27 25 24 22 20 19 19 18 18
38 38 38 38 37 37 37 36 36 36 36 36 36 35 36 37 36 37 37 38 38 37 36 34 36 38 39 41 40 39 38 36 34 31 29 27 25 22 20 19 18 17 17
39 39 39 39 39 39 39 39 38 38 38 38 38 38 38 38 38 39 39 39 41 39 39 37 36 37 40 42 42 41 40 38 36 34 31 29 26 23 21 19 17 17 16
39 39 39 39 40 40 41 41 41 42 41 41 40 40 40 40 41 40 41 41 41 41 41 41 40 39 40 42 43 43 42 40 38 36 34 31 28 25 22 20 18 17 16
39 39 40 40 41 41 42 43 44 44 45 44 44 43 44 44 43 43 43 43 43 43 43 43 42 40 42 43 44 44 43 42 41 39 36 33 30 27 24 21 19 17 16
39 40 40 41 42 42 43 44 45 46 46 46 46 46 46 46 47 46 46 46 45 44 45 44 42 42 43 44 44 45 45 44 43 41 39 36 33 29 26 23 21 18 17
40 40 41 41 42 42 43 44 45 46 46 47 47 46 47 48 48 49 49 49 49 48 48 46 45 45 44 44 45 45 46 45 45 43 41 38 35 32 29 25 22 20 18
40 40 41 41 41 42 43 44 44 45 45 46 46 47 47 48 50 51 52 52 53 53 52 50 48 49 48 46 45 46 46 46 46 45 43 41 38 34 31 28 24 21 19
40 40 40 40 41 42 42 43 43 43 44 44 45 45 47 48 50 51 53 55 56 55 55 55 53 51 49 48 47 47 47 47 46 46 45 43 40 37 34 30 27 23 20
40 40 40 40 40 41 41 40 40 40 40 41 42 43 46 48 50 52 53 55 56 57 58 58 58 55 51 49 48 47 47 47 48 48 47 45 43 40 36 33 29 26 23
40 40 39 39 39 39 38 38 38 37 37 37 39 41 43 46 48 50 53 55 56 57 59 59 59 58 56 53 50 48 48 48 49 49 48 46 44 42 39 35 32 29 25
40 39 39 38 38 37 36 36 36 35 34 35 37 39 41 44 47 49 52 54 56 58 60 60 60 60 59 56 53 51 49 49 49 49 47 47 46 43 41 37 34 31 28
39 38 38 38 36 34 34 33 32 32 33 34 35 37 39 41 44 47 50 53 55 57 59 61 61 61 60 58 57 53 50 49 47 46 47 47 46 45 42 39 36 33 30
Wind_Direction
292 294 292 290 290 288 289 288 288 286 285 281 274 268 261 257 258 256 254 251 250 250 250 250 244 241 240 241 240 239 239 236 233 233 234 235 235 233 234 232 229 228 229
291 291 291 290 290 288 288 287 285 284 283 282 278 270 265 260 257 256 254 251 251 248 246 247 242 239 240 240 240 237 238 237 234 232 233 234 234 233 233 233 230 229 228
290 290 290 290 288 288 286 284 282 282 280 278 277 270 266 262 258 258 255 255 250 245 243 243 240 237 236 236 237 235 235 234 233 232 232 234 233 232 230 231 230 229 228
292 291 289 287 286 286 285 282 279 279 278 277 273 267 266 264 261 259 255 253 249 243 242 240 235 235 233 232 232 232 231 232 232 232 232 233 233 231 229 230 230 228 229
291 291 289 287 285 283 282 281 278 276 276 274 271 266 265 263 261 260 257 252 245 241 241 239 234 232 228 229 229 229 230 231 231 231 231 231 233 232 231 231 230 228 230
290 289 288 285 284 281 279 279 277 275 274 272 270 266 263 261 261 263 258 252 244 239 239 236 233 229 226 226 226 226 227 228 228 228 229 230 231 231 230 229 229 230 231
288 287 286 284 282 280 278 277 275 274 273 271 271 268 264 262 262 262 258 252 244 236 234 233 231 227 224 225 224 223 223 224 225 225 226 228 228 229 229 228 229 232 232
287 285 283 281 281 279 277 275 273 271 271 270 268 268 265 263 262 260 257 249 243 235 230 230 229 227 223 223 221 220 221 221 222 223 225 226 226 227 229 230 232 233 233
286 284 282 280 278 277 276 274 272 269 267 266 265 264 263 261 258 257 254 248 244 236 231 229 228 225 223 220 219 218 218 220 219 221 223 224 226 227 229 231 232 232 233
288 286 284 281 278 276 273 272 270 268 265 263 262 260 259 258 255 252 250 245 243 240 233 228 225 223 221 218 217 216 216 216 217 218 220 223 225 226 228 229 231 232 234
288 286 284 282 279 277 274 271 268 266 263 261 259 257 255 254 253 249 245 243 240 237 231 225 222 220 218 216 215 215 215 214 215 216 218 220 223 225 226 228 230 231 234
290 288 285 282 280 277 275 271 269 266 263 260 257 255 253 251 250 245 242 239 235 234 229 223 219 217 216 215 215 214 214 214 214 214 215 217 219 222 225 228 230 231 234
291 289 286 283 280 277 274 270 267 266 264 261 257 254 251 249 246 243 241 236 232 230 227 223 219 217 215 214 214 214 214 213 213 213 214 215 217 220 223 226 229 231 233
291 289 287 284 281 278 275 271 267 265 264 261 258 255 251 248 244 240 238 234 231 228 226 224 218 216 215 214 214 214 214 214 213 212 213 214 216 218 221 224 227 229 232
291 288 286 284 281 279 276 273 269 265 263 261 258 256 252 248 245 240 236 233 231 230 225 221 218 216 216 215 214 214 214 214 213 212 212 213 215 217 220 223 226 228 232
292 288 286 284 282 279 276 274 270 266 263 261 258 255 252 249 245 240 235 233 230 229 225 220 218 217 216 215 214 214 213 213 213 212 212 213 215 217 219 221 223 225 228
293 290 287 285 282 280 277 274 271 268 265 262 259 255 251 249 245 241 236 232 229 228 226 221 218 217 215 215 213 214 214 213 212 212 213 213 214 216 218 219 222 225 228
296 292 289 287 284 282 278 275 272 269 266 263 260 256 251 247 244 241 236 232 228 225 223 221 218 217 217 215 212 213 214 213 213 213 213 213 214 216 218 219 222 225 230
298 295 291 288 286 283 280 277 273 270 266 263 260 256 251 247 243 239 235 231 228 224 221 219 217 217 216 215 212 213 214 214 213 213 213 213 214 216 218 219 222 226 230
301 297 294 291 288 284 281 278 274 270 266 262 259 255 250 246 241 237 234 231 228 225 222 219 218 216 214 212 212 212 213 213 214 213 213 214 215 216 217 219 221 225 229
305 301 298 294 290 286 283 280 275 270 265 261 258 254 249 245 241 236 232 230 230 227 223 218 217 216 213 212 211 212 213 213 214 214 214 215 216 217 218 219 221 224 228
307 304 300 297 293 290 287 282 276 270 265 261 257 252 248 244 240 236 232 230 229 227 224 220 217 215 212 212 212 212 213 213 213 214 215 216 217 218 219 220 221 224 228
311 308 304 301 296 292 289 284 278 271 265 261 256 251 247 242 238 235 232 229 226 225 223 221 218 216 213 211 210 211 212 212 213 213 214 215 217 218 220 221 222 224 228
315 312 309 305 300 295 290 286 280 273 266 260 255 251 246 240 236 233 229 226 224 222 221 220 218 216 214 212 211 212 211 212 213 214 214 216 217 218 220 221 223 224 227
319 316 312 308 304 299 293 288 281 274 267 262 256 251 245 239 235 231 227 224 221 220 218 217 216 215 214 214 211 211 211 211 211 213 214 216 217 218 220 221 222 224 227
323 320 317 314 309 303 297 290 283 276 270 264 256 249 244 237 232 229 225 222 220 218 218 216 215 215 214 214 213 211 211 211 211 212 213 215 217 218 219 220 222 224 226
Height
5869 5867 5864 5863 5862 5860 5858 5857 5856 5855 5854 5853 5853 5853 5854 5855 5856 5857 5859 5862 5864 5866 5868 5870 5872 5874 5876 5878 5880 5882 5884 5885 5887 5889 5891 5893 5895 5896 5898 5900 5901 5903 5905
5862 5860 5858 5856 5854 5852 5851 5850 5849 5848 5847 5846 5846 5846 5846 5847 5847 5849 5851 5853 5856 5858 5861 5863 5865 5868 5870 5873 5875 5877 5879 5881 5883 5885 5887 5888 5890 5893 5895 5897 5898 5900 5902
5853 5852 5850 5848 5845 5844 5843 5842 5842 5841 5840 5839 5838 5838 5839 5839 5840 5841 5843 5845 5848 5850 5853 5856 5858 5862 5865 5867 5870 5872 5875 5877 5878 5880 5883 5884 5886 5888 5891 5893 5895 5897 5899
5844 5843 5841 5839 5837 5836 5834 5834 5833 5833 5832 5831 5831 5831 5831 5831 5833 5834 5835 5837 5839 5842 5846 5848 5851 5855 5859 5862 5865 5868 5870 5872 5874 5876 5878 5880 5882 5884 5886 5889 5891 5893 5896
5835 5833 5832 5830 5828 5827 5826 5825 5825 5824 5824 5823 5823 5823 5824 5824 5825 5826 5828 5829 5832 5835 5838 5841 5845 5848 5852 5856 5859 5862 5865 5867 5869 5872 5874 5875 5877 5879 5882 5884 5887 5889 5892
5825 5823 5821 5820 5819 5817 5817 5816 5815 5815 5815 5815 5815 5815 5816 5817 5818 5819 5820 5822 5824 5828 5831 5834 5838 5842 5846 5850 5853 5857 5860 5862 5865 5867 5869 5871 5873 5875 5877 5880 5882 5885 5887
5816 5814 5811 5810 5808 5807 5807 5806 5806 5806 5806 5806 5806 5807 5808 5809 5810 5811 5812 5814 5816 5820 5823 5827 5831 5835 5839 5843 5847 5851 5854 5857 5860 5862 5865 5867 5869 5871 5873 5875 5878 5880 5882
5805 5803 5801 5799 5798 5796 5796 5795 5796 5796 5797 5796 5797 5798 5799 5801 5802 5802 5804 5806 5809 5812 5816 5820 5824 5828 5833 5837 5841 5844 5848 5851 5854 5857 5860 5862 5864 5866 5869 5871 5873 5875 5878
5794 5792 5790 5789 5787 5786 5785 5784 5784 5785 5786 5787 5787 5788 5790 5792 5793 5795 5796 5798 5801 5804 5809 5812 5817 5821 5825 5830 5834 5838 5842 5846 5849 5852 5855 5857 5860 5862 5864 5867 5869 5871 5873
5783 5781 5779 5777 5776 5775 5774 5773 5773 5773 5775 5776 5777 5778 5780 5782 5785 5787 5789 5791 5794 5797 5800 5805 5809 5814 5818 5823 5828 5832 5836 5840 5844 5847 5850 5853 5855 5858 5860 5862 5864 5866 5869
5772 5770 5768 5766 5765 5764 5763 5762 5762 5762 5763 5765 5766 5768 5769 5772 5775 5778 5781 5783 5786 5789 5792 5796 5801 5806 5811 5816 5821 5826 5831 5835 5838 5842 5845 5848 5851 5853 5856 5858 5860 5862 5864
5762 5759 5757 5756 5754 5753 5753 5752 5752 5752 5752 5754 5755 5757 5759 5762 5765 5768 5772 5775 5778 5781 5785 5789 5794 5799 5804 5809 5814 5819 5824 5829 5833 5837 5840 5843 5846 5849 5852 5854 5856 5857 5859
5752 5749 5747 5745 5744 5743 5742 5742 5742 5742 5742 5743 5745 5747 5749 5751 5754 5758 5762 5766 5769 5773 5778 5782 5787 5792 5797 5802 5807 5813 5818 5823 5827 5831 5835 5839 5842 5845 5847 5849 5851 5853 5855
5741 5738 5736 5734 5733 5732 5731 5731 5732 5732 5732 5733 5734 5736 5738 5741 5744 5748 5752 5757 5761 5765 5769 5774 5779 5785 5790 5795 5800 5806 5811 5817 5822 5826 5830 5834 5837 5840 5843 5845 5847 5849 5850
5730 5727 5725 5723 5721 5720 5719 5719 5720 5720 5721 5722 5724 5725 5727 5730 5734 5737 5741 5746 5751 5755 5761 5766 5771 5776 5781 5787 5793 5798 5804 5810 5815 5820 5825 5829 5833 5836 5838 5841 5843 5844 5846
5719 5716 5713 5711 5709 5708 5707 5707 5707 5708 5709 5710 5712 5714 5716 5719 5722 5726 5731 5735 5740 5746 5751 5757 5762 5767 5773 5779 5785 5791 5797 5803 5809 5814 5819 5823 5828 5831 5834 5836 5838 5840 5842
5708 5704 5701 5699 5696 5695 5694 5693 5693 5694 5695 5697 5699 5701 5704 5707 5710 5715 5720 5725 5730 5735 5741 5747 5753 5758 5764 5770 5776 5783 5789 5796 5802 5807 5813 5818 5822 5826 5830 5832 5834 5836 5838
5696 5692 5689 5686 5683 5681 5680 5679 5679 5679 5680 5682 5684 5687 5690 5693 5698 5702 5707 5713 5718 5724 5730 5736 5743 5749 5755 5761 5767 5774 5781 5788 5794 5800 5806 5812 5817 5821 5825 5828 5830 5832 5834
5684 5679 5676 5672 5669 5667 5665 5663 5663 5663 5663 5665 5667 5670 5674 5678 5684 5688 5694 5700 5706 5712 5719 5726 5732 5739 5745 5751 5758 5765 5772 5780 5786 5793 5799 5805 5811 5815 5819 5823 5825 5828 5829
5672 5667 5662 5658 5654 5652 5649 5647 5646 5646 5646 5647 5650 5653 5657 5662 5667 5673 5679 5686 5693 5700 5707 5714 5721 5728 5735 5742 5749 5756 5764 5771 5778 5785 5792 5798 5804 5809 5814 5817 5820 5823 5825
5660 5654 5649 5644 5640 5636 5633 5631 5629 5628 5629 5630 5632 5635 5639 5644 5650 5656 5664 5671 5678 5686 5694 5702 5710 5717 5725 5733 5740 5747 5755 5762 5770 5777 5784 5791 5797 5803 5807 5811 5815 5818 5820
5648 5642 5636 5631 5626 5621 5617 5614 5612 5611 5611 5613 5615 5617 5622 5627 5632 5639 5647 5654 5663 5671 5680 5689 5698 5706 5715 5723 5731 5738 5746 5754 5762 5770 5777 5783 5790 5796 5801 5805 5809 5812 5815
5637 5630 5623 5617 5611 5606 5602 5598 5595 5595 5595 5596 5597 5600 5604 5609 5614 5621 5629 5637 5646 5655 5665 5675 5685 5695 5704 5713 5721 5729 5736 5744 5753 5760 5768 5775 5782 5788 5794 5799 5803 5806 5809
5626 5618 5611 5604 5598 5592 5587 5583 5580 5579 5579 5580 5581 5584 5587 5592 5598 5604 5612 5621 5630 5640 5651 5662 5672 5683 5692 5700 5710 5719 5726 5734 5742 5751 5759 5767 5774 5781 5787 5792 5797 5800 5804
5615 5607 5599 5592 5585 5579 5573 5569 5566 5564 5564 5564 5566 5568 5572 5576 5582 5589 5597 5606 5615 5625 5635 5646 5657 5668 5679 5689 5698 5707 5716 5725 5733 5743 5751 5759 5766 5773 5779 5785 5790 5794 5798
5605 5597 5588 5580 5573 5567 5561 5556 5552 5551 5550 5550 5551 5553 5557 5561 5567 5574 5582 5592 5602 5612 5622 5633 5644 5655 5666 5677 5687 5697 5707 5716 5725 5734 5743 5750 5757 5765 5772 5777 5783 5787 5791